Weather History for York, PA

Change the Weather History Date:

Tuesday, February 12, 2013

  Actual Average Record
Temperature  
Mean Temperature 36 °F -  
Max Temperature 46 °F 0 °F 71 °F (1999)
Min Temperature 26 °F - -4 °F (2014)
Degree Days  
Heating Degree Days 28    
Moisture  
Dew Point 24 °F    
Average Humidity 58    
Maximum Humidity 84    
Minimum Humidity 46    
Precipitation  
Precipitation 0.00 in - - ()
Sea Level Pressure  
Sea Level Pressure 29.94 in    
Wind  
Wind Speed 9 mph (NW)    
Max Wind Speed 20 mph    
Max Gust Speed 28 mph    
Visibility 10 miles    
Events      
Averages and records for this station are not official NWS values.
T = Trace of Precipitation, MM = Missing Value Source: NWS Daily Summary

Daily Weather History Graph

Daily Weather History Graph

Search for Another Location

Airport:

Trip Planner

Search our weather history database for the weather conditions in past years. The results will help you decide how hot, cold, wet, or windy it might be!

Date:

Astronomy

Feb. 12, 2013 Rise Set
Actual Time 7:03 AM EST 5:40 PM EST
Civil Twilight 6:35 AM EST 6:08 PM EST
Nautical Twilight 6:04 AM EST 6:40 PM EST
Astronomical Twilight 5:32 AM EST 7:11 PM EST
Moon 7:59 AM EST (2/12) 8:38 PM EST (2/12)
Length of Visible Light 11h 32m
Length of Day
10h 36m
Waxing Crescent, 7% of the Moon is Illuminated
Feb 12
Waxing Crescent
Feb 17
First Quarter
Feb 25
Full
Mar 4
Last Quarter
Mar 11
New

Hourly Weather History & Observations

Time (EST) Temp. Windchill Dew Point Humidity Pressure Visibility Wind Dir Wind Speed Gust Speed Precip Events Conditions
12:53 AM 42.1 °F 37.1 °F 28.0 °F 58% 29.84 in 10.0 mi West 8.1 mph - N/A   Overcast
1:53 AM 43.0 °F 36.0 °F 26.1 °F 51% 29.85 in 10.0 mi West 13.8 mph 21.9 mph N/A   Overcast
2:53 AM 42.1 °F 34.5 °F 25.0 °F 51% 29.86 in 10.0 mi West 15.0 mph 26.5 mph N/A   Mostly Cloudy
3:53 AM 41.0 °F 34.7 °F 24.1 °F 51% 29.86 in 10.0 mi West 10.4 mph 18.4 mph N/A   Overcast
4:53 AM 41.0 °F 34.3 °F 24.1 °F 51% 29.88 in 10.0 mi WNW 11.5 mph 20.7 mph N/A   Overcast
5:53 AM 41.0 °F 31.9 °F 24.1 °F 51% 29.88 in 10.0 mi WNW 19.6 mph 27.6 mph N/A   Overcast
6:53 AM 41.0 °F 33.1 °F 24.1 °F 51% 29.92 in 10.0 mi WNW 15.0 mph 21.9 mph N/A   Overcast
7:53 AM 41.0 °F 35.2 °F 24.1 °F 51% 29.94 in 10.0 mi WNW 9.2 mph - N/A   Overcast
8:53 AM 41.0 °F 34.3 °F 24.1 °F 51% 29.95 in 10.0 mi WNW 11.5 mph - N/A   Overcast
9:53 AM 42.1 °F 35.7 °F 25.0 °F 51% 29.98 in 10.0 mi WNW 11.5 mph - N/A   Overcast
10:53 AM 42.1 °F 36.1 °F 25.0 °F 51% 30.01 in 10.0 mi NW 10.4 mph - N/A   Overcast
11:53 AM 43.0 °F 37.2 °F 26.1 °F 51% 30.01 in 10.0 mi NW 10.4 mph - N/A   Overcast
12:53 PM 45.0 °F 38.9 °F 25.0 °F 46% 29.99 in 10.0 mi NNW 12.7 mph - N/A   Mostly Cloudy
1:53 PM 46.0 °F 43.1 °F 26.1 °F 46% 29.95 in 10.0 mi North 5.8 mph - N/A   Clear
2:53 PM 45.0 °F 40.1 °F 26.1 °F 48% 29.92 in 10.0 mi NNW 9.2 mph - N/A   Clear
3:53 PM 45.0 °F 41.8 °F 25.0 °F 46% 29.94 in 10.0 mi NNW 5.8 mph - N/A   Clear
4:53 PM 44.1 °F - 25.0 °F 47% 29.97 in 10.0 mi Calm Calm - N/A   Clear
5:53 PM 39.0 °F 36.8 °F 24.1 °F 55% 29.98 in 10.0 mi North 3.5 mph - N/A   Clear
6:53 PM 28.9 °F - 23.0 °F 78% 30.00 in 10.0 mi Calm Calm - N/A   Clear
7:53 PM 28.0 °F - 21.9 °F 78% 29.98 in 10.0 mi Calm Calm - N/A   Clear
8:53 PM 28.0 °F - 21.9 °F 78% 29.95 in 10.0 mi Calm Calm - N/A   Clear
9:53 PM 27.0 °F - 21.9 °F 81% 29.96 in 10.0 mi Calm Calm - N/A   Clear
10:53 PM 27.0 °F - 21.9 °F 81% 29.98 in 9.0 mi Calm Calm - N/A   Clear
11:53 PM 26.1 °F - 21.9 °F 84% 29.97 in 9.0 mi Calm Calm - N/A   Clear